This demonstration page uses our WeatherBlox Daily Observations layout. Learn more.

Left ArrowRight Arrow

Hourly Observations for November 21, 2015

Temp ( °F °C ) Dew Point ( °F °C ) Humidity (%) Winds ( mph kmh ) Pressure ( in mb ) Visibility ( mi km ) Precip ( " mm )
12:26 am 00:26 Cloudy 28 -2 23 -5 80 80 N 22 35 30.39 1029 10 16 0.00 0.00
12:42 am 00:42 Cloudy 28 -2 23 -5 80 80 N 23 37 30.39 1029 10 16 0.00 0.00
12:50 am 00:50 Cloudy 28 -2 23 -5 80 80 N 22 35 30.42 1030 10 16 0.00 0.00
12:53 am 00:53 Cloudy 29 -1.7 23 -5 78 78 N 16 26 30.36 1028 10 16 0.00 0.00
1:53 am 01:53 Cloudy 29 -1.7 22 -5.6 75 75 N 18 30 30.39 1029 10 16 0.00 0.00
2:53 am 02:53 Cloudy 29 -1.7 21 -6.1 72 72 N 17 28 30.42 1030 10 16 0.00 0.00
3:46 am 03:46 Partly Cloudy 26 -3.3 20 -6.7 78 78 NNW 12 19 30.50 1033 10 16 0.00 0.00
3:53 am 03:53 Mostly Clear 26 -3.3 20 -6.7 78 78 NW 13 20 30.45 1031 10 16 0.00 0.00
4:53 am 04:53 Clear 24 -4.4 19 -7.2 81 81 NW 8 13 30.45 1031 10 16 0.00 0.00
5:53 am 05:53 Partly Cloudy 26 -3.3 20 -6.7 78 78 NW 10 17 30.46 1032 10 16 0.00 0.00
6:53 am 06:53 Mostly Cloudy 26 -3.3 20 -6.7 78 78 NNW 16 26 30.47 1032 10 16 0.00 0.00
7:53 am 07:53 Sunny 24 -4.4 18 -7.8 77 77 NW 13 20 30.48 1032 10 16 0.00 0.00
8:53 am 08:53 Sunny 25 -3.9 15 -9.4 66 66 NNW 15 24 30.50 1033 10 16 0.00 0.00
9:53 am 09:53 Sunny 28 -2.2 15 -9.4 58 58 N 12 19 30.50 1033 10 16 0.00 0.00
10:53 am 10:53 Sunny 30 -1.1 14 -10 51 51 NNW 15 24 30.49 1032 10 16 0.00 0.00
11:53 am 11:53 Sunny 31 -0.6 12 -11.1 45 45 NNW 12 19 30.46 1031 10 16 0.00 0.00
12:53 pm 12:53 Sunny 33 0.6 10 -12.2 38 38 WNW 9 15 30.40 1030 10 16 0.00 0.00
1:53 pm 13:53 Sunny 34 1.1 9 -12.8 35 35 W 10 17 30.36 1028 10 16 0.00 0.00
2:53 pm 14:53 Sunny 35 1.7 8 -13.3 32 32 W 10 17 30.32 1027 10 16 0.00 0.00
3:53 pm 15:53 Sunny 36 2.2 11 -11.7 35 35 W 13 20 30.30 1026 10 16 0.00 0.00
4:53 pm 16:53 Sunny 34 1.1 12 -11.1 40 40 WSW 12 19 30.27 1025 10 16 0.00 0.00
5:53 pm 17:53 Clear 31 -0.6 15 -9.4 52 52 WSW 9 15 30.26 1025 10 16 0.00 0.00
6:53 pm 18:53 Clear 30 -1.1 17 -8.3 58 58 WSW 7 11 30.25 1024 10 16 0.00 0.00
7:53 pm 19:53 Clear 29 -1.7 16 -8.9 58 58 SW 5 7 30.24 1024 10 16 0.00 0.00
8:53 pm 20:53 Mostly Clear 29 -1.7 16 -8.9 58 58 SW 5 7 30.23 1024 10 16 0.00 0.00
9:53 pm 21:53 Clear 29 -1.7 16 -8.9 58 58 SSW 6 9 30.20 1023 10 16 0.00 0.00
10:53 pm 22:53 Mostly Cloudy 30 -1.1 16 -8.9 56 56 SSW 8 13 30.18 1022 10 16 0.00 0.00
11:53 pm 23:53 Clear 30 -1.1 17 -8.3 58 58 SSW 8 13 30.16 1021 10 16 0.00 0.00

Powered by AerisWeather